Find NTS

NORAD ID: 32784 Int'l Des: 2008-021 Owner: UTIAS/COMDEV Country: CA operational
LEOCIRCULARRETROGRADESSO

当前视图

正在加载3D地球...

About NTS

NTS (NORAD 32784) is a satellite launched Apr 28, 2008 by UTIAS/COMDEV of CA. It operates in LEO, CIRCULAR, RETROGRADE, SSO orbit with a mass of 6.00 kg.

即将过境

Passes for default location (London). Set your location on the main map for personalized predictions.

高度历史

Loading altitude history...

两行轨道根数

1 32784U 08021B 26194.50672739 .00001969 00000-0 14960-3 0 9994
2 32784 97.9098 174.4982 0011991 48.1563 312.0684 15.03350999988082
Epoch: Jul 13, 2026 • Age: 12 hours

当前状态

高度 563.3 km
远地点 / 近地点 N/A
速度 7.58 km/s
星下点 10.91°N, 63.28°E
发射日期 Apr 28, 2008
运行时间 18.2 years
类型 other

技术详情

分类 Payload
质量 6.00 kg
干质量 6.00 kg
总质量 6.00 kg
长度 0.20 m
直径 0.20 m
跨度 1.00 m
形状 Box + Ant + Ant
制造商 UTIAS
平台类型 GNB
阶段状态 In Orbit
所有者/国家 UTIAS/COMDEV/CA

Most Searched